Regional Weather Roundup
Issued by NWS

Home | Current Version | Previous Version | Text Only | Print | Product List | Glossary Off
Versions: 1 2 3 4 5 6 7 8 9 10 11 12 13 14 15 16 17 18 19 20 21 22 23 24 25 26 27 28 29 30 31 32 33 34 35 36 37 38 39 40 41 42 43 44 45 46 47 48 49 50

854
ASUS43 KFSD 050202
RWRSD

WEATHER ROUNDUP FOR SOUTH DAKOTA
NATIONAL WEATHER SERVICE SIOUX FALLS SD
800 PM CST SUN DEC 04 2016

NOTE: "FAIR" INDICATES FEW OR NO CLOUDS BELOW 12,000 FEET WITH NO
SIGNIFICANT WEATHER AND/OR OBSTRUCTIONS TO VISIBILITY.


SDZ001>005-009-010-012>017-050300-
NORTHWEST AND NORTH CENTRAL SOUTH DAKOTA

CITY           SKY/WX    TMP DP  RH WIND       PRES   REMARKS
BUFFALO          N/A     33  22  63 S7        29.51F WCI  27
FAITH            N/A     30  24  78 SE14      29.61F WCI  19
MOBRIDGE       CLOUDY    30  24  78 SE8       29.65F WCI  22
$$

SDZ012>016-024>037-041>051-057-063-072>074-050300-
SOUTHWEST AND SOUTH CENTRAL SOUTH DAKOTA

CITY           SKY/WX    TMP DP  RH WIND       PRES   REMARKS
RAPID CTY ARPT CLOUDY    35  18  49 S8        29.61F WCI  29
PIERRE         CLOUDY    29  24  82 E3        29.69F
CUSTER         CLOUDY    35  17  47 SW10G22   29.61F WCI  27
ELLSWORTH AFB  CLOUDY    37  19  46 SW6       29.60F
PHILIP         CLOUDY    35  23  61 SE5       29.66F
PINE RIDGE     CLOUDY    33  24  69 W3        29.65F
SPEARFISH      CLOUDY    39  21  48 W6G13     29.58F
WINNER         FAIR      36  26  67 S7        29.72F
$$

SDZ004>011-016>023-039-040-050300-
NORTHEAST SOUTH DAKOTA

CITY           SKY/WX    TMP DP  RH WIND       PRES   REMARKS
ABERDEEN       CLEAR     26  22  84 S7        29.73F WCI  18
WATERTOWN      CLEAR     28  26  92 SW9       29.73F WCI  19
SISSETON         N/A     33  27  78 W10       29.70F WCI  25
$$

SDZ017-020-022-023-036>040-048>070-050300-
SOUTHEAST SOUTH DAKOTA

CITY           SKY/WX    TMP DP  RH WIND       PRES   REMARKS
SIOUX FALLS    PTCLDY    33  29  85 W3        29.79F
HURON          CLEAR     32  27  81 S6        29.75F WCI  26
CHAMBERLAIN    PTCLDY    32  28  83 SE7       29.74F WCI  26
MITCHELL       CLEAR     35  28  75 S8        29.77F WCI  29
YANKTON        CLEAR     36  27  69 CALM      29.80F
$$

ABBREVIATIONS USED IN REMARKS
   TC - TEMPERATURE IN CELSIUS
  WCI - WIND CHILL INDEX
   HX - HEAT INDEX
  VSB - VISIBILITY





USA.gov is the U.S. government's official web portal to all federal, state and local government web resources and services.